Regional Weather Roundup
Issued by NWS

Home | Current Version | Previous Version | Text Only | Print | Product List | Glossary On
Versions: 1 2 3 4 5 6 7 8 9 10 11 12 13 14 15 16 17 18 19 20 21 22 23 24 25 26 27 28 29 30 31 32 33 34 35 36 37 38 39 40 41 42 43 44 45 46 47 48 49 50
000
ASUS44 KLUB 221210
RWRLUB
WEST TEXAS WEATHER ROUNDUP
NATIONAL WEATHER SERVICE LUBBOCK TX
700 AM CDT MON JUL 22 2019

NOTE: "FAIR" INDICATES FEW OR NO CLOUDS BELOW 12,000 FEET WITH NO
SIGNIFICANT WEATHER AND/OR OBSTRUCTIONS TO VISIBILITY.

TXZ004-006>008-010-012-014-016-OKZ002-221300-
TEXAS PANHANDLE/OKLAHOMA PANHANDLE

CITY           SKY/WX    TMP DP  RH WIND       PRES   REMARKS
AMARILLO       CLOUDY    67  62  84 N15       30.25R
BORGER         MOCLDY    69  61  75 NE12G18   30.25R
CANADIAN       CLOUDY    69  65  87 N9        30.22R
DALHART        LGT RAIN  65  61  87 NE8       30.36R
DUMAS          CLOUDY    64  61  89 N8        30.31R
GUYMON         CLOUDY    67  62  84 N7        30.31R
HEREFORD       CLOUDY    71  64  79 NE18      30.27R
PAMPA          CLEAR     67  63  88 NE14G20   30.25S
PERRYTON       CLOUDY    66  63  88 CALM      30.26F
$$

TXZ026-029-035-045-048-221300-
SOUTHERN PANHANDLE/SOUTH PLAINS/ROLLING PLAINS

CITY           SKY/WX    TMP DP  RH WIND       PRES   REMARKS
CHILDRESS      CLEAR     74  68  81 NE13      30.11R
SEMINOLE       CLOUDY    74  54  49 NE8       30.17R
LUBBOCK        MOCLDY    75  59  57 N10       30.14R
PLAINVIEW      CLEAR     68  57  68 NE13      30.18R
SNYDER         LGT RAIN  76  64  65 W5        30.10S
$$

TXZ052-054-060>062-072-078-127-140-154-169-221300-
PERMIAN BASIN/CONCHO VALLEY/BIG COUNTRY/EDWARDS PLATEAU

CITY           SKY/WX    TMP DP  RH WIND       PRES   REMARKS
ABILENE        CLEAR     79  70  74 S8        30.04R
BIG SPRING     PTCLDY    76  57  51 NE3       30.13R
BRADY          CLEAR     72  66  83 SW3       30.04R
JUNCTION       CLEAR     73  69  87 CALM      30.05R
MIDLAND        PTCLDY    77  62  59 SE6       30.11R
ODESSA         CLEAR     75  58  55 SE7       30.12R
SAN ANGELO     CLEAR     74  67  78 CALM      30.05R
SONORA         CLEAR     75  70  83 CALM      30.10R
SWEETWATER     CLEAR     76  67  72 SW10      30.10R
WINK           CLEAR     78  58  49 SE8       30.07R
$$

TXZ055-058-074-075-080-082-221300-
FAR WEST/SOUTHWEST MOUNTAINS/TRANS PECOS

CITY           SKY/WX    TMP DP  RH WIND       PRES   REMARKS
ALPINE         CLEAR     64  54  69 W3        30.22R
DRYDEN           N/A     74  68  81 NE6       30.03R
EL PASO        MOCLDY    80  53  39 E6        30.12R
FORT STOCKTON  CLEAR     74  67  78 SE6       30.08R
GUADALUPE PASS CLOUDY    72  53  51 NE32      30.22R
MARFA          CLEAR     66  54  65 S3        30.21R
PECOS          CLEAR     78  60  54 E9        30.06S
PRESIDIO       FAIR      82  55  40 N10       30.05R
$$

TXZ014-016-019-021>030-083-221300
TEXAS TECH WEST TEXAS MESONET/TEXAS PANHANDLE/NORTHERN SOUTH PLAINS

CITY           SKY/WX    TMP DP  RH WIND       PRES   REMARKS
ABERNATHY 5ENE   N/A     70  59  68 N8        30.17R
AMARILLO 9NNE    N/A     67  62  83 N12       30.27R
AMARILLO 7SSE    N/A     67  63  86 N17       30.28R
AMHERST 1NE      N/A     70  58  65 N16       30.19R
BOOTLEG 11WNW    N/A     64  62  93 N17       30.34R
CANADIAN 6E      N/A     68  64  86 N10       30.21S
CAPROCK CYN SP   N/A     72  66  82 N6        30.18R
CHILDRESS 2NNE   N/A     72  67  82 N13       30.11R
CLARENDON 2WSW   N/A     69  62  78 N17       30.20R
CLAUDE 12SW      N/A     67  65  93 N16       30.24R
DIMMITT 2NE      N/A     69  62  77 N22       30.25R
FLOYDADA 2NNE    N/A     70  64  83 NE13      30.17R
FRIONA 2NE       N/A     68  62  83 N18       30.28R
GOODLETT 3W      N/A     74  67  78 N14       30.09R
HART 3N          N/A     69  63  79 N15       30.23R
HEREFORD 2NW     N/A     68  61  77 N18       30.27R
MCLEAN 1E        N/A     66  61  83 N13       30.20R
MEMPHIS 1NE      N/A     72  65  77 N15       30.13R
MULESHOE 2SSW    N/A     72  64  76 N21G32    30.22R
OLTON 6S         N/A     69  61  76 N16       30.19R
PALO DURO SP     N/A     68  62  81 N12       30.26R
PAMPA 2E         N/A     65  61  87 N15       30.24S
PLAINVIEW 1S     N/A     69  61  76 NE9       30.18R
SILVERTON 7ESE   N/A     70  64  81 N15       30.19R
TULIA 2ENE       N/A     71  63  76 NE14      30.22R
TURKEY 2WSW      N/A     72  66  80 N10       30.15R
UMBARGER 3NNE    N/A     68  62  82 N16       30.28R
$$

TXZ033>036-039>041-045>048-221300
TEXAS TECH WEST TEXAS MESONET/SOUTH PLAINS

CITY           SKY/WX    TMP DP  RH WIND       PRES   REMARKS
AIKEN 3WSW       N/A     69  61  77 NE9       30.19R
ANDREWS 2NE      N/A     71  57  60 S2        30.12R
ANTON 6SSW       N/A     71  60  68 NW8       30.15S
BROWNFIELD 2S    N/A     74  58  56 N7        30.15R
DENVR CTY 7WNW   N/A     72  55  54 N12       30.17R
GAIL 2ESE        N/A     73  62  68 S5        30.10R
LAMESA 2SE       N/A     77  57  50 SE8       30.13R
LUBBOCK 3WNW     N/A     75  56  51 N6        30.15R
MORTON 1ENE      N/A     72  62  70 N20       30.18S
ODONNELL 1N      N/A     72  62  72 NE1       30.12S
PLAINS 3N        N/A     72  59  64 N12       30.17R
RALLS 1SE        N/A     72  56  57 N7        30.15R
REESE CENTER     N/A     71  58  62 NW9       30.15R
SEAGRAVES 1SW    N/A     74  58  56 NE7       30.15R
SEMINOLE 2NNE    N/A     74  54  49 NE8       30.14R
SLATON 2NE       N/A     72  66  81 SW7       30.14R
SNYDER 3E        N/A     72  67  82 S5        30.10R
SUNDOWN 8SW      N/A     72  59  64 N12       30.16S
TAHOKA 3NNE      N/A     71  66  83 NW3       30.14R
WOLFFORTH 6SSW   N/A     72  60  66 N3        30.16R
$$

TXZ031-032-036>038-042>044-221300-
TEXAS TECH WEST TEXAS MESONET/ROLLING PLAINS

CITY           SKY/WX    TMP DP  RH WIND       PRES   REMARKS
ASPERMONT 3NE    N/A     73  64  72 N6        30.06R
FLUVANNA 3WNW    N/A     72  65  78 SE5       30.11S
GRAHAM 5SSW      N/A     77  58  51 S3        30.11S
GUTHRIE 10WSW    N/A     72  58  60 N7        30.08R
HASKELL 1NW      N/A     77  65  68 CALM      30.04R
JAYTON 1SSE      N/A     74  63  69 NE3       30.08R
KNOX CITY 3NW    N/A     78  63  60 NE3       30.06S
LK A HENRY 1NW   N/A     75  64  69 S2        30.09R
NORTHFIELD 1S    N/A     73  66  78 NE12      30.11R
ODELL 4ENE       N/A     75  69  81 N12       30.08R
PADUCAH 10SW     N/A     73  66  77 N10       30.09R
RRING SPRGS 3N   N/A     70  66  87 N10       30.13R
SEYMOUR 3NW      N/A     74  65  72 N3        30.04R
SPUR 1W          N/A     76  57  51 N8        30.08R
WEINERT 2NNE     N/A     79  64  59 N6        30.06R
WHITE RVR 6NE    N/A     76  56  50 N12       30.11R
$$

TXZ052-054-060>062-072-078-127-140-154-169-221300-
TEXAS TECH WEST TEXAS MESONET/PERMIAN BASIN/
CONCHO VALLEY/BIG COUNTRY/EDWARDS PLATEAU

CITY           SKY/WX    TMP DP  RH WIND       PRES   REMARKS
COYANOSA 2N      N/A     74  62  64 E6        30.08R
JUNCTION 1SSW    N/A     67  65  94 CALM      30.06R
MERTZON 3NNE     N/A     72  69  90 NW5       30.09R
SAN ANGELO 7NW   N/A     71  62  72 NW2       30.06R
STRLNG CT 4WSW   N/A     66  59  76 S1        30.11R
ST LAWRNCE 5SW   N/A     71  57  62 NE3       30.10R
SWEETWATR 11SW   N/A     71  67  85 SW3       30.11R
WALL 1E          N/A     74  67  79 S3        30.06S
$$

TXZ055-058-074-075-080-082-221300-
TEXAS TECH WEST TEXAS MESONET/FAR WEST/SOUTHWEST MOUNTAINS/TRANS PECOS

CITY           SKY/WX    TMP DP  RH WIND       PRES   REMARKS
PRSMN GAP BBNP   N/A     76  66  71 N18       30.05R
GUADLPE MTN NP   N/A     71  53  51 NE13      30.28R
$$



USA.gov is the U.S. government's official web portal to all federal, state and local government web resources and services.